Home   Weather   Aberdeen   Past weeks
Flag for USA

Past Weather in Aberdeen, South Dakota, USA — Yesterday and Last 2 Weeks

Now
52 °F

Clear.


Feels Like: 47 °F
Forecast: 61 / 46 °F
Wind: 16 mph from South

Location: Aberdeen Regional Airport

Current Time: Oct 18, 2019 at 6:42:20 am

Latest Report: Oct 18, 2019 at 5:53 am


Visibility: 10 mi

Pressure: 29.43 "Hg

Humidity: 72%

Dew Point: 43 °F

Location of AberdeenLocation

Past Weather in Aberdeen — Graph

°F

Aberdeen Temperature Yesterday

Maximum temperature yesterday: 64 °F (at 3:53 pm)
Minimum temperature yesterday: 29 °F (at 6:53 am)
Average temperature yesterday: 47 °F

High & Low Weather Summary for the Past Weeks

 TemperatureHumidityPressure
High69 °F (Oct 7, 1:53 pm)97% (Oct 3, 4:53 am)30.41 "Hg (Oct 3, 4:53 am)
Low24 °F (Oct 14, 3:53 am)27% (Oct 7, 3:53 pm)29.44 "Hg (Oct 18, 4:53 am)
Average42 °F77%29.93 "Hg
* Reported Oct 3 4:34 am — Oct 18 4:53 am, Aberdeen. Weather by CustomWeather, © 2019

Note: Actual official high and low records may vary slightly from our data, if they occured in-between our weather recording intervals... More about our weather records

Advertising

Aberdeen Weather History for the Previous 24 Hours

Scroll right to see more
 ConditionsComfort  
Time TempWeatherWind HumidityBarometerVisibility
4:53 am
Fri, Oct 18
52 °FClear.18 mph72%29.44 "Hg10 mi
3:53 am53 °FClear.15 mph69%29.45 "Hg10 mi
2:53 am53 °FClear.17 mph69%29.48 "Hg10 mi
1:53 am54 °FClear.16 mph67%29.49 "Hg10 mi
12:53 am55 °FClear.18 mph64%29.50 "Hg10 mi
11:53 pm
Thu, Oct 17
55 °FClear.21 mph62%29.55 "Hg10 mi
10:53 pm55 °FClear.17 mph62%29.58 "Hg10 mi
9:53 pm56 °FClear.14 mph60%29.60 "Hg10 mi
8:53 pm55 °FClear.12 mph62%29.62 "Hg10 mi
7:53 pm53 °FClear.8 mph69%29.65 "Hg10 mi
6:53 pm56 °FClear.10 mph62%29.65 "Hg10 mi
5:53 pm58 °FSunny.7 mph62%29.67 "Hg10 mi
4:53 pm62 °FSunny.12 mph52%29.68 "Hg10 mi
3:53 pm64 °FSunny.14 mph49%29.71 "Hg10 mi
2:53 pm62 °FSunny.9 mph52%29.74 "Hg10 mi
1:53 pm59 °FSunny.10 mph51%29.77 "Hg10 mi
12:53 pm57 °FSunny.12 mph53%29.81 "Hg10 mi
11:53 am51 °FSunny.7 mph66%29.84 "Hg10 mi
10:53 am49 °FSunny.7 mph69%29.86 "Hg10 mi
8:53 am32 °FSunny.No wind92%29.90 "Hg10 mi
7:53 am30 °FSunny.6 mph89%29.90 "Hg10 mi
6:53 am29 °FClear.3 mph93%29.90 "Hg10 mi
Weather by CustomWeather, © 2019

See weather overview